This is the latest recevied weather packets stored in our database for station/object HB9HFD-13. If no packets are shown the sender has not sent any weather packets the latest 10 day(s).
| Time | Temp. | Humidity | Pressure | Rain* | Wind** | Luminosity | Snow |
|---|---|---|---|---|---|---|---|
| 1777524480 | 10° C | 56% | 1017.6 hPa | 0 mm | - | - | - |
| 1777524180 | 9.44° C | 57% | 1017.6 hPa | 0 mm | - | - | - |
| 1777523879 | 9.44° C | 63% | 1017.5 hPa | 0 mm | - | - | - |
| 1777523579 | 9.44° C | 61% | 1017.5 hPa | 0 mm | - | - | - |
| 1777523279 | 9.44° C | 63% | 1017.5 hPa | 0 mm | - | - | - |
| 1777522979 | 9.44° C | 64% | 1017.5 hPa | 0 mm | - | - | - |
| 1777522678 | 9.44° C | 64% | 1017.5 hPa | 0 mm | - | - | - |
| 1777522378 | 9.44° C | 64% | 1017.4 hPa | 0 mm | - | - | - |
| 1777522078 | 9.44° C | 64% | 1017.3 hPa | 0 mm | - | - | - |
| 1777521778 | 9.44° C | 64% | 1017.4 hPa | 0 mm | - | - | - |
| 1777521477 | 9.44° C | 64% | 1017.3 hPa | 0 mm | - | - | - |
| 1777521177 | 9.44° C | 65% | 1017.3 hPa | 0 mm | - | - | - |
| 1777520877 | 10° C | 64% | 1017.3 hPa | 0 mm | - | - | - |
| 1777520577 | 10° C | 64% | 1017.3 hPa | 0 mm | - | - | - |
| 1777520276 | 10° C | 64% | 1017.3 hPa | 0 mm | - | - | - |
| 1777519976 | 10° C | 63% | 1017.3 hPa | 0 mm | - | - | - |
| 1777519676 | 10° C | 65% | 1017.3 hPa | 0 mm | - | - | - |
| 1777519375 | 10° C | 63% | 1017.3 hPa | 0 mm | - | - | - |
| 1777519075 | 10.56° C | 64% | 1017.2 hPa | 0 mm | - | - | - |
| 1777518775 | 10.56° C | 62% | 1017.3 hPa | 0 mm | - | - | - |
| 1777518475 | 10.56° C | 63% | 1017.1 hPa | 0 mm | - | - | - |
| 1777518174 | 10.56° C | 61% | 1017.1 hPa | 0 mm | - | - | - |
| 1777517874 | 11.11° C | 61% | 1017 hPa | 0 mm | - | - | - |
| 1777517574 | 11.11° C | 58% | 1017 hPa | 0 mm | - | - | - |
| 1777517273 | 11.11° C | 56% | 1017 hPa | 0 mm | - | - | - |
* Rain latest hour (hover to see other rain measurements)
** Current wind speed in m/s (hover to see current wind gust speed)